Вернуться в каталог

COSMOS 2251 DEB

АктивенLEO
NORAD 37094·DEBRIS·🇷🇺 Russia

Запущен Jun 16, 1993 с Plesetsk Cosmodrome

Loading…

Ближайшие Пролёты (ближайшие 24 часа)

TLE

СвежийSource: Space-Track

Эпоха: Sep 13, 2026, 13:36 UTC

1 37094U 93036BFQ 26256.56728591  .00001227  00000-0  38923-3 0  9998
2 37094  74.1099 336.6888 0082571 231.7370 127.6336 14.39144192884582

Отслеживайте COSMOS 2251 DEB в реальном времени с AllMySat

Download on the App Store